Location: Arbon
(43.0005°N, 0.7472°E)
Time: 01:35:59
(UTC+00:00)

S-56A Canister/Altair - Pass Details

Date: 07 December 2020
Orbit: 633 x 2499 km, 38.9° (Epoch: 19 January)

Event Time Altitude Azimuth Distance (km) Brightness Sun altitude
Rises 16:49:19 0° 238° (WSW) 6,171 14.8 -5.2°
Reaches altitude 10° 16:53:31 10° 235° (SW) 5,129 13.5 -5.9°
Maximum altitude 17:07:46 60° 161° (SSE) 2,380 10.0 -8.2°
Drops below altitude 10° 17:18:26 10° 86° (E) 3,930 10.5 -10.0°
Enters shadow 17:18:33 10° 85° (E) 3,960 10.5 -10.1°
